contact:dominique.lefevre@mio.osupytheas.fr, maurice.libes@osupytheas.fr
Project:EMSO Ligure-ouest http://www.emso-fr.org/EMSO-France
Sensor Aquadopp, line 13 Serial AQD14315 
DOI : "https://doi.org/10.17882/74513; https://doi.org/10.17882/83244" 
Title:EMSO Ligure Ouest : Data ligne ALBATROSS capteur AQUADOPP - deploiement 2021
Id,Date,Profondeur,Latitude,Longitude,X_East,Y_North,Z_Up,Amplitude_X,Amplitude_Y,Amplitude_Z,Batterie,SoundSpeed,Heading,Pitch,Roll,Pressure,Temperature,Speed,Direction
, , m, degrees North, degrees East, m.s-1, m.s-1,m.s-1, 1, 1, 1, Volt, m.s-1, degree, degree, degree, dbar, degree_C, m.s-1, degree
09,2022-07-30T23:30:00,2000.0,42.79,6.0312,-0.037,-0.013,-0.029,69.0,66.0,68.0,13.1,1504.7,236.6,-0.9,1.0,1992.707,13.28,0.039,250.6
09,2022-07-31T00:00:00,2000.0,42.79,6.0312,-0.048,-0.027,0.034,67.0,63.0,66.0,13.1,1504.7,225.9,-1.3,1.1,1992.686,13.28,0.055,240.6
09,2022-07-31T00:30:00,2000.0,42.79,6.0312,-0.04,-0.033,0.011,66.0,66.0,64.0,13.1,1504.7,235.7,-1.4,0.9,1992.683,13.28,0.051,230.5
09,2022-07-31T01:00:00,2000.0,42.79,6.0312,-0.049,-0.062,-0.017,65.0,64.0,69.0,13.1,1504.7,216.3,-1.6,1.2,1992.627,13.28,0.079,218.3
09,2022-07-31T02:00:00,2000.0,42.79,6.0312,-0.051,-0.027,-0.036,68.0,65.0,67.0,13.1,1504.7,226.6,-1.2,1.1,1992.63,13.28,0.057,242.1
09,2022-07-31T02:30:00,2000.0,42.79,6.0312,-0.045,-0.021,-0.013,69.0,64.0,67.0,13.1,1504.7,244.9,-1.3,0.9,1992.594,13.28,0.049,245.0
09,2022-07-31T03:00:00,2000.0,42.79,6.0312,-0.054,-0.035,-0.019,70.0,64.0,67.0,13.1,1504.7,233.9,-1.4,1.0,1992.636,13.28,0.064,237.0
09,2022-07-31T03:30:00,2000.0,42.79,6.0312,-0.063,-0.046,-0.023,67.0,64.0,65.0,13.1,1504.7,223.7,-1.5,1.1,1992.608,13.28,0.078,233.9
09,2022-07-31T04:00:00,2000.0,42.79,6.0312,-0.055,-0.042,-0.002,65.0,64.0,68.0,13.1,1504.7,223.5,-1.4,1.0,1992.6,13.28,0.069,232.6
09,2022-07-31T04:30:00,2000.0,42.79,6.0312,-0.051,-0.053,-0.007,66.0,61.0,64.0,13.1,1504.7,226.9,-1.2,1.1,1992.619,13.28,0.073,223.9
09,2022-07-31T05:00:00,2000.0,42.79,6.0312,-0.049,-0.039,0.029,65.0,61.0,64.0,13.1,1504.7,233.5,-1.4,1.0,1992.589,13.28,0.062,231.5
09,2022-07-31T05:30:00,2000.0,42.79,6.0312,-0.059,-0.031,0.0,65.0,64.0,67.0,13.1,1504.7,230.3,-1.6,0.8,1992.623,13.28,0.066,242.3
09,2022-07-31T06:00:00,2000.0,42.79,6.0312,-0.06,-0.043,0.011,67.0,61.0,66.0,13.1,1504.7,230.0,-1.3,1.1,1992.641,13.28,0.073,234.4
09,2022-07-31T06:30:00,2000.0,42.79,6.0312,-0.056,-0.059,-0.014,65.0,62.0,65.0,13.1,1504.7,222.7,-1.3,1.3,1992.678,13.28,0.081,223.5
09,2022-07-31T07:00:00,2000.0,42.79,6.0312,-0.059,-0.052,0.001,65.0,61.0,64.0,13.1,1504.7,234.9,-1.5,0.9,1992.72,13.28,0.078,228.6
09,2022-07-31T07:30:00,2000.0,42.79,6.0312,-0.076,-0.046,-0.005,66.0,63.0,66.0,13.1,1504.7,242.1,-1.6,0.9,1992.722,13.28,0.088,238.8
09,2022-07-31T08:00:00,2000.0,42.79,6.0312,-0.071,-0.055,-0.009,66.0,63.0,65.0,13.1,1504.7,232.8,-1.5,1.0,1992.766,13.28,0.089,232.2
09,2022-07-31T08:30:00,2000.0,42.79,6.0312,-0.08,-0.024,0.007,68.0,60.0,65.0,13.1,1504.7,234.1,-1.5,1.1,1992.779,13.28,0.083,253.3
09,2022-07-31T09:00:00,2000.0,42.79,6.0312,-0.06,-0.046,0.005,65.0,62.0,66.0,13.1,1504.7,237.5,-1.7,1.0,1992.724,13.28,0.075,232.5
09,2022-07-31T09:30:00,2000.0,42.79,6.0312,-0.079,-0.034,-0.017,65.0,62.0,64.0,13.1,1504.7,236.8,-1.6,0.8,1992.751,13.28,0.086,246.7
09,2022-07-31T10:00:00,2000.0,42.79,6.0312,-0.054,-0.042,0.008,67.0,64.0,65.0,13.1,1504.7,232.6,-1.8,1.1,1992.738,13.28,0.068,232.1
09,2022-07-31T10:30:00,2000.0,42.79,6.0312,-0.064,-0.035,0.022,67.0,66.0,66.0,13.1,1504.7,240.1,-1.4,1.0,1992.728,13.28,0.072,241.3
09,2022-07-31T11:00:00,2000.0,42.79,6.0312,-0.057,-0.041,0.009,66.0,64.0,66.0,13.1,1504.7,233.1,-1.9,1.0,1992.679,13.28,0.07,234.3
09,2022-07-31T11:30:00,2000.0,42.79,6.0312,-0.084,-0.026,-0.013,67.0,65.0,68.0,13.1,1504.7,240.6,-1.6,0.7,1992.678,13.28,0.087,252.8
09,2022-07-31T12:00:00,2000.0,42.79,6.0312,-0.066,-0.027,-0.024,68.0,66.0,68.0,13.1,1504.7,236.4,-1.6,0.9,1992.656,13.28,0.071,247.8
09,2022-07-31T12:30:00,2000.0,42.79,6.0312,-0.041,-0.027,0.01,69.0,65.0,68.0,13.1,1504.7,228.6,-1.9,1.3,1992.651,13.28,0.049,236.6
09,2022-07-31T13:00:00,2000.0,42.79,6.0312,-0.082,-0.047,-0.014,65.0,63.0,65.0,13.1,1504.7,234.0,-1.8,0.6,1992.647,13.28,0.094,240.2
09,2022-07-31T13:30:00,2000.0,42.79,6.0312,-0.051,-0.029,-0.014,68.0,65.0,68.0,13.1,1504.7,233.0,-1.9,0.8,1992.646,13.28,0.058,240.4
09,2022-07-31T14:00:00,2000.0,42.79,6.0312,-0.047,-0.041,-0.009,67.0,64.0,67.0,13.1,1504.7,232.7,-1.8,0.9,1992.618,13.28,0.062,228.9
09,2022-07-31T15:00:00,2000.0,42.79,6.0312,-0.067,-0.031,0.014,72.0,67.0,69.0,13.1,1504.7,238.8,-1.5,1.0,1992.618,13.28,0.073,245.2
09,2022-07-31T15:30:00,2000.0,42.79,6.0312,-0.042,-0.047,-0.014,71.0,70.0,71.0,13.1,1504.7,226.6,-1.8,1.1,1992.618,13.28,0.063,221.8
09,2022-07-31T16:00:00,2000.0,42.79,6.0312,-0.053,-0.055,-0.013,71.0,67.0,68.0,13.1,1504.7,236.0,-1.8,0.9,1992.606,13.28,0.076,223.9
09,2022-07-31T16:30:00,2000.0,42.79,6.0312,-0.036,-0.049,0.006,72.0,67.0,71.0,13.1,1504.7,230.7,-1.7,1.1,1992.615,13.28,0.06,216.3
09,2022-07-31T17:00:00,2000.0,42.79,6.0312,-0.04,-0.062,-0.001,71.0,64.0,68.0,13.1,1504.7,231.8,-2.2,0.8,1992.607,13.28,0.073,212.8
09,2022-07-31T17:30:00,2000.0,42.79,6.0312,-0.033,-0.058,-0.003,70.0,67.0,68.0,13.1,1504.7,238.3,-1.9,0.8,1992.67,13.28,0.066,209.6
09,2022-07-31T18:00:00,2000.0,42.79,6.0312,-0.062,-0.059,-0.012,70.0,68.0,68.0,13.1,1504.7,240.5,-1.1,0.8,1992.678,13.28,0.085,226.4
09,2022-07-31T18:30:00,2000.0,42.79,6.0312,-0.057,-0.059,-0.02,69.0,68.0,69.0,13.1,1504.7,229.2,-1.6,0.8,1992.769,13.28,0.082,224.0
09,2022-07-31T19:00:00,2000.0,42.79,6.0312,-0.052,-0.089,0.012,69.0,68.0,72.0,13.1,1504.7,228.0,-1.9,0.9,1992.811,13.28,0.103,210.3
09,2022-07-31T19:30:00,2000.0,42.79,6.0312,-0.068,-0.073,0.0,69.0,67.0,69.0,13.1,1504.7,233.3,-2.0,0.8,1992.809,13.28,0.099,223.0
09,2022-07-31T20:00:00,2000.0,42.79,6.0312,-0.077,-0.057,0.014,72.0,68.0,69.0,13.1,1504.7,237.3,-1.6,0.6,1992.871,13.28,0.095,233.5
09,2022-07-31T20:30:00,2000.0,42.79,6.0312,-0.068,-0.077,-0.015,70.0,66.0,68.0,13.1,1504.7,224.9,-1.8,0.9,1992.859,13.28,0.102,221.4
09,2022-07-31T21:00:00,2000.0,42.79,6.0312,-0.08,-0.052,-0.017,70.0,64.0,67.0,13.1,1504.7,236.8,-1.5,1.1,1992.864,13.28,0.095,237.0
09,2022-07-31T21:30:00,2000.0,42.79,6.0312,-0.078,-0.072,0.012,68.0,65.0,71.0,13.1,1504.7,231.8,-1.6,0.6,1992.89,13.28,0.106,227.3
09,2022-07-31T22:00:00,2000.0,42.79,6.0312,-0.058,-0.052,-0.028,69.0,64.0,68.0,13.1,1504.7,225.3,-1.9,1.1,1992.891,13.28,0.077,228.1
09,2022-07-31T22:30:00,2000.0,42.79,6.0312,-0.067,-0.061,-0.005,71.0,66.0,69.0,13.1,1504.7,243.0,-1.8,0.8,1992.88,13.28,0.09,227.7
09,2022-07-31T23:00:00,2000.0,42.79,6.0312,-0.082,-0.047,0.007,69.0,65.0,70.0,13.1,1504.7,237.7,-1.9,1.0,1992.84,13.28,0.094,240.2
